Reno, NV

10:47 PM PST on December 06, 2019 (GMT -0800)
Reno-Tahoe International

Weather History for KRNO - November, 2019

Change the Weather History Date:

Saturday, November 16, 2019

  Actual Average Record
Temperature  
Mean Temperature 48 °F 42 °F  
Max Temperature 66 °F 55 °F 69 °F (1995)
Min Temperature 31 °F 30 °F 5 °F (1909)
Degree Days  
Heating Degree Days 16 23  
Month to date heating degree days 217 317  
Since 1 July heating degree days 774 753  
Cooling Degree Days 0 0  
Month to date cooling degree days 0 0  
Year to date cooling degree days 1107 839  
Moisture  
Dew Point 24 °F    
Average Humidity 42    
Maximum Humidity 66    
Minimum Humidity 21    
Precipitation  
Precipitation 0.00 in 0.03 in 0.81 in (2017)
Month to date precipitation 0.00 0.40  
Year to date precipitation 9.05 5.95  
Snow  
Snow 0.00 in 0.10 in 1.90 in (1955)
Month to date snowfall 0.0 1.4  
Since 1 July snowfall T 1.8  
Since 1 September snowfall T 1.8  
Snow Depth 0.00 in    
Sea Level Pressure  
Sea Level Pressure 30.27 in    
Wind  
Wind Speed 2 mph ()    
Max Wind Speed 13 mph    
Max Gust Speed 15 mph    
Visibility 10.0 miles    
Events      
T = Trace of Precipitation, MM = Missing Value Source: Averaged Metar Reports

Daily Weather History Graph

Daily Weather History Graph

Search for Another Location

Airport or City:

Astronomy

Nov. 16, 2019 Rise Set
Actual Time 6:44 AM PST 4:43 PM PST
Civil Twilight 6:15 AM PST 5:12 PM PST
Nautical Twilight 5:42 AM PST 5:44 PM PST
Astronomical Twilight 5:10 AM PST 6:16 PM PST
Moon 8:21 PM PST (11/16) 10:42 AM PST (11/16)
Length of Visible Light 10h 56m
Length of Day
9h 59m
Waning Gibbous, 81% of the Moon is Illuminated
Nov 16
Waning Gibbous
Nov 19
Last Quarter
Nov 26
New
Dec 3
First Quarter
Dec 11
Full

Hourly Weather History & Observations

Time (PST) Temp. Windchill Dew Point Humidity Pressure Visibility Wind Dir Wind Speed Gust Speed Precip Events Conditions
12:55 AM 39.0 °F - 24.1 °F 55% 30.21 in 10.0 mi Calm Calm - N/A   Clear
1:55 AM 39.9 °F 37.8 °F 21.9 °F 49% 30.22 in 10.0 mi WNW 3.5 mph - N/A   Clear
2:55 AM 35.1 °F 32.2 °F 23.0 °F 61% 30.23 in 10.0 mi South 3.5 mph - N/A   Clear
4:55 AM 35.1 °F - 23.0 °F 61% 30.26 in 10.0 mi Calm Calm - N/A   Clear
5:55 AM 32.0 °F - 21.9 °F 66% 30.29 in 10.0 mi Calm Calm - N/A   Clear
6:55 AM 32.0 °F 27.5 °F 21.9 °F 66% 30.30 in 10.0 mi Variable 4.6 mph - N/A   Clear
7:55 AM 35.1 °F 32.2 °F 23.0 °F 61% 30.33 in 10.0 mi South 3.5 mph - N/A   Clear
8:55 AM 42.1 °F - 23.0 °F 47% 30.32 in 10.0 mi Calm Calm - N/A   Clear
9:55 AM 46.9 °F - 24.1 °F 41% 30.32 in 10.0 mi Calm Calm - N/A   Clear
10:55 AM 52.0 °F - 23.0 °F 32% 30.30 in 10.0 mi Calm Calm - N/A   Partly Cloudy
11:55 AM 57.9 °F - 23.0 °F 26% 30.24 in 10.0 mi Calm Calm - N/A   Partly Cloudy
12:55 PM 62.1 °F - 24.1 °F 23% 30.21 in 10.0 mi East 4.6 mph - N/A   Partly Cloudy
1:55 PM 64.9 °F - 25.0 °F 22% 30.19 in 10.0 mi NNE 3.5 mph - N/A   Scattered Clouds
2:55 PM 64.9 °F - 24.1 °F 21% 30.19 in 10.0 mi East 5.8 mph - N/A   Mostly Cloudy
3:55 PM 64.0 °F - 26.1 °F 24% 30.22 in 10.0 mi ENE 8.1 mph - N/A   Mostly Cloudy
4:55 PM 59.0 °F - 27.0 °F 29% 30.22 in 10.0 mi East 5.8 mph - N/A   Scattered Clouds
5:55 PM 57.0 °F - 26.1 °F 30% 30.25 in 10.0 mi NE 6.9 mph - N/A   Scattered Clouds
6:55 PM 53.1 °F - 26.1 °F 35% 30.28 in 10.0 mi North 4.6 mph - N/A   Scattered Clouds
7:55 PM 50.0 °F - 26.1 °F 39% 30.30 in 10.0 mi Variable 3.5 mph - N/A   Scattered Clouds
8:55 PM 46.9 °F - 25.0 °F 42% 30.30 in 10.0 mi Calm Calm - N/A   Scattered Clouds
9:55 PM 45.0 °F - 26.1 °F 48% 30.31 in 10.0 mi Calm Calm - N/A   Scattered Clouds
10:55 PM 43.0 °F - 24.1 °F 47% 30.32 in 10.0 mi Calm Calm - N/A   Partly Cloudy
11:55 PM 43.0 °F 41.3 °F 25.0 °F 49% 30.32 in 10.0 mi West 3.5 mph - N/A   Partly Cloudy